Simultaneous Nadir Overpasses (SNOs) Predictions

Prediction of SNOs between GOES-17 and LANDSAT-8 Satellite Orbit:

Table of predicted SNOs for the next 14.0 days since TLE Epoch: 4/4/2025
Index Date Time (GOES-17) GOES-17 Lat,Lon LANDSAT-8 Lat,Lon Distance(km) Time Diff (sec)
1 04/05/2025 16:51:22 0.03,-104.42 -0.86,-100.32 466.22 80
2 04/06/2025 05:15:25 -0.03,-104.38 -0.30,-105.50 128.47 80
3 04/08/2025 05:03:13 -0.03,-104.38 0.37,-102.55 207.87 80
4 04/08/2025 17:21:47 0.02,-104.42 0.73,-107.70 374.19 80
5 04/10/2025 17:09:35 0.02,-104.42 0.09,-104.75 37.03 80
6 04/12/2025 17:00:01 0.02,-104.43 -0.53,-101.78 300.54 80
7 04/13/2025 05:21:23 -0.02,-104.39 -0.60,-106.97 293.67 80
8 04/15/2025 05:06:29 -0.02,-104.39 0.05,-104.01 43.93 80
9 04/17/2025 04:54:15 -0.02,-104.40 0.67,-101.04 381.32 80
10 04/17/2025 17:15:29 0.02,-104.43 0.41,-106.20 200.68 80
